EST,Max TemperatureF,Mean TemperatureF,Min TemperatureF,Max Dew PointF,MeanDew PointF,Min DewpointF,Max Humidity, Mean Humidity, Min Humidity, Max Sea Level PressureIn, Mean Sea Level PressureIn, Min Sea Level PressureIn, Max VisibilityMiles, Mean VisibilityMiles, Min VisibilityMiles, Max Wind SpeedMPH, Mean Wind SpeedMPH, Max Gust SpeedMPH,PrecipitationIn, CloudCover, Events, WindDirDegrees
2011-11-1,73,68,63,64,62,59,97,80,71,30.17,30.11,30.07,10,10,10,23,15,26,0.00,1,,56
2011-11-2,75,70,64,66,61,58,87,77,64,30.20,30.15,30.11,10,10,10,17,13,,0.00,0,,70
2011-11-3,77,70,64,67,63,60,97,79,58,30.14,30.07,29.97,10,10,10,9,6,,0.00,1,,44
2011-11-4,71,65,60,68,59,52,100,82,67,30.00,29.92,29.87,10,9,3,18,7,24,0.03,4,Rain,332
2011-11-5,71,65,59,61,57,51,84,77,65,30.12,30.04,29.97,10,10,10,24,13,,0.00,3,,40
2011-11-6,75,68,61,65,62,58,97,86,64,30.14,30.10,30.09,10,10,10,24,14,18,0.00,4,,50
2011-11-7,73,68,64,67,65,64,100,90,73,30.19,30.13,30.07,10,10,10,16,11,,0.00,3,,56
2011-11-8,77,70,64,68,65,62,100,85,60,30.11,30.07,30.02,10,10,10,10,7,,0.00,1,,47
2011-11-9,77,70,64,65,61,55,97,76,52,30.07,29.99,29.93,10,10,10,14,8,,0.00,0,,17
2011-11-10,73,68,64,64,60,55,97,77,52,29.99,29.94,29.89,10,10,10,16,7,23,0.00,2,,4
2011-11-11,64,58,53,50,41,36,75,52,38,30.23,30.13,30.00,10,10,10,28,17,36,0.00,0,,43
2011-11-12,72,64,57,62,54,45,84,70,60,30.27,30.22,30.18,10,10,10,16,12,,0.00,0,,77
2011-11-13,75,69,63,63,60,58,90,76,57,30.23,30.17,30.11,10,10,10,12,8,,0.00,0,,86
2011-11-14,80,72,64,69,66,63,97,84,64,30.15,30.09,30.02,10,10,10,9,4,,0.00,0,,74
2011-11-15,78,74,69,74,71,69,100,98,83,30.06,30.02,29.99,10,7,0,10,4,,0.00,6,Fog,136
2011-11-16,80,74,69,73,72,70,100,96,79,30.06,30.00,29.96,10,9,2,14,5,16,0.00,4,,205
2011-11-17,78,72,64,73,70,57,100,94,74,30.13,30.02,29.97,10,7,0,21,7,20,0.00,5,Fog-Rain,259
2011-11-18,75,67,59,64,59,52,80,74,69,30.20,30.17,30.12,10,10,10,22,17,26,0.00,4,,75
2011-11-19,77,72,68,69,65,61,90,81,74,30.23,30.19,30.14,10,10,10,16,13,,0.00,5,,88
2011-11-20,78,74,69,71,69,67,96,88,76,30.25,30.21,30.16,10,10,10,14,10,,0.00,0,,80
2011-11-21,82,76,69,72,70,66,94,84,65,30.24,30.17,30.10,10,10,10,12,8,,0.00,3,,76
2011-11-22,78,74,70,72,70,67,97,88,74,30.17,30.11,30.08,10,10,10,10,6,,0.00,3,,183
2011-11-23,77,73,69,72,69,66,97,89,78,30.11,30.06,30.00,10,10,5,10,7,18,0.15,3,Rain,261
2011-11-24,73,68,63,66,60,56,90,74,64,30.24,30.15,30.06,10,10,10,24,14,22,0.00,0,,61
2011-11-25,75,69,63,62,60,58,87,73,59,30.25,30.20,30.14,10,10,10,16,11,,0.00,3,,83
2011-11-26,78,72,66,65,63,60,90,75,60,30.21,30.15,30.10,10,10,10,17,12,,0.00,1,,114
2011-11-27,78,72,66,66,62,59,90,73,58,30.11,30.02,29.94,10,10,10,20,12,,0.00,1,,147
2011-11-28,72,67,62,68,64,56,100,94,73,29.96,29.90,29.87,10,8,2,17,12,20,0.27,7,Rain,317
2011-11-29,68,66,63,57,53,50,81,65,52,30.01,29.97,29.92,10,10,10,13,6,23,0.00,3,,301
2011-11-30,64,60,55,57,52,47,83,76,68,30.10,30.04,29.98,10,10,10,15,8,23,0.00,6,,352